Tracking 19176 objects as of 25-May-2018
HD Live streaming from Space Station
objects crossing your sky now

BREEZE-M DEB

Track BREEZE-M DEB now!
10-day predictions


NORAD ID: 34259
Int'l Code: 2006-006CA
Perigee: 1,134.0 km
Apogee: 14,717.8 km
Inclination: 50.8 °
Period: 283.5 minutes
Semi major axis: 14296 km
RCS: 0.2413 m2 (medium)
Launch date: February 28, 2006
Source: Commonwealth of Independent States (former USSR) (CIS)
Launch site: TYURATAM MISSILE AND SPACE COMPLEX (TTMTR)

Note: This is SATELLITE DEBRIS
aabbcc
Your satellite tracking list
Your tracking list is empty




NASA's NSSDC Master Catalog

Two Line Element Set (TLE):
1 34259U 06006CA  18143.35041730 +.00000014 +00000-0 +00000-0 0  9990
2 34259 050.8409 144.1759 4750625 078.7498 329.3838 05.07856421227751
Source of the keplerian elements: AFSPC